Location: Biltmore Gardens
(41.6070°N, 83.4666°W)
Time: 08:12:37
(UTC+00:00)

Vanguard 3 - Pass Details

Date: 27 April 2021
Orbit: 507 x 3262 km, 33.4° (Epoch: 17 May)

Event Time Altitude Azimuth Distance (km) Brightness Sun altitude
Rises 03:33:25 0° 226° (SW) 5,903 11.4 -28.2°
Reaches altitude 10° 03:38:36 10° 217° (SW) 4,390 10.7 -28.7°
Enters shadow 03:41:01 16° 209° (SSW) 3,696 10.2 -28.9°
